Regional Weather Roundup
Issued by NWS

Home | Current Version | Previous Version | Graphics & Text | Print | Product List | Glossary On
Versions: 1 2 3 4 5 6 7 8 9 10 11 12 13 14 15 16 17 18 19 20 21 22 23 24 25 26 27 28 29 30 31 32 33 34 35 36 37 38 39 40 41 42 43 44 45 46 47 48 49 50
000
ASUS45 KCYS 011210
RWRWY

WYOMING REGIONAL WEATHER ROUNDUP
NATIONAL WEATHER SERVICE CHEYENNE WY
600 AM MDT MON SEP 01 2014

NOTE:  "FAIR" INDICATES FEW OR NO CLOUDS BELOW 12,000 FEET
WITH NO SIGNIFICANT WEATHER AND/OR OBSTRUCTIONS TO VISIBILITY.

WYZ001-011300-
YELLOWSTONE NATIONAL PARK

CITY           SKY/WX    TMP DP  RH WIND       PRES   REMARKS
LK YELLOWSTONE   N/A     37  36  96 NW5       30.14S WCI  33
6HR MIN TEMP:  36; 6HR MAX TEMP:  40; 6HR PCP:  0.01;

W YELLOWSTONE  NOT AVBL

$$
WYZ002>013-054>058-071-098>099-011300-
NORTHERN WYOMING

CITY           SKY/WX    TMP DP  RH WIND       PRES   REMARKS
JACKSON        PTCLDY    36  36 100 CALM      30.11R
CODY           MOCLDY    54  39  58 N9        29.99F
GREYBULL       PTCLDY    52  48  86 SW9       29.97R
6HR MIN TEMP:  52; 6HR MAX TEMP:  56;

WORLAND        MOCLDY    51  47  86 S14       29.95F
6HR MIN TEMP:  49; 6HR MAX TEMP:  54; 6HR PCP: TRACE;

SHERIDAN       MOCLDY    51  42  71 SW6       29.96R
6HR MIN TEMP:  47; 6HR MAX TEMP:  56;

BUFFALO        MOCLDY    54  37  52 NW10      30.00S
6HR MIN TEMP:  48; 6HR MAX TEMP:  54; 6HR PCP: TRACE;

GILLETTE       CLOUDY    52  45  77 CALM      29.97R
6HR MIN TEMP:  49; 6HR MAX TEMP:  53;

HULETT         FAIR      45  43  93 MISG      29.96
NEWCASTLE      FAIR      45  43  93 MISG      29.98

$$
WYZ014>020-022>026-101>103-011300-
CENTRAL WYOMING

CITY           SKY/WX    TMP DP  RH WIND       PRES   REMARKS
BIG PINEY      PTCLDY    34  31  88 E6        30.13S WCI  29
6HR MIN TEMP:  34; 6HR MAX TEMP:  40;

PINEDALE       MOSUNNY   32  32 100 NW5       30.14S WCI  27
DUBOIS         FAIR      36  32  87 NW8       30.08S WCI  29
LANDER         MOCLDY    47  37  68 NW6       30.01S
6HR MIN TEMP:  47; 6HR MAX TEMP:  52;

RIVERTON       MOCLDY    49  36  61 SW3       30.02S
6HR MIN TEMP:  46; 6HR MAX TEMP:  54;

CASPER         MOCLDY    43  41  93 SW3       30.02R
6HR MIN TEMP:  43; 6HR MAX TEMP:  47;

DOUGLAS        PTCLDY    45  43  93 S3        30.02S
6HR MIN TEMP:  44; 6HR MAX TEMP:  50;


$$
WYZ021-027>030-104>119-011300-
SOUTHERN WYOMING

CITY           SKY/WX    TMP DP  RH WIND       PRES   REMARKS
EVANSTON       CLEAR     44  30  57 S7        30.15R
6HR MIN TEMP:  44; 6HR MAX TEMP:  50;

KEMMERER       SUNNY     37  34  87 CALM      30.14F
FORT BRIDGER   FAIR      48  32  54 W8        30.16R
ROCK SPRINGS   PTCLDY    45  32  60 SW5       30.12S
6HR MIN TEMP:  43; 6HR MAX TEMP:  50;

DIXON          FAIR      40  37  86 CALM      30.16R
RAWLINS        MOCLDY    45  35  68 SW7       30.10S
6HR MIN TEMP:  43; 6HR MAX TEMP:  49;

SARATOGA       FAIR      41  36  81 CALM      30.13S
LARAMIE        PTCLDY    42  34  73 W8        30.11R
6HR MIN TEMP:  39; 6HR MAX TEMP:  52;

CHEYENNE       PTCLDY    46  38  73 W7        30.07S
6HR MIN TEMP:  44; 6HR MAX TEMP:  49;

TORRINGTON     CLEAR     46  45  96 SE6       29.99R
6HR MIN TEMP:  45; 6HR MAX TEMP:  54;

PINE BLUFFS    FAIR      41  41 100 SW5       30.05S

$$


USA.gov is the U.S. government's official web portal to all federal, state and local government web resources and services.